Previsão horária em Almelo

Hoje, 21 Janeiro, Quinta-feira

Tempo Temperatura Precipitação Vento Pressão Humidade
00:00 +8°C° 0 mm 9 m/s 741 mmHg 73%
01:00 +8°C° 0 mm 10 m/s 739 mmHg 71%
02:00 +8°C° 0 mm 11 m/s 738 mmHg 69%
03:00 +8°C° 0 mm 12 m/s 737 mmHg 67%
04:00 +7°C° 1.1 mm 12 m/s 737 mmHg 70%
05:00 +5°C° 1.1 mm 12 m/s 737 mmHg 73%
06:00 +4°C° 1.1 mm 11 m/s 738 mmHg 76%
07:00 +4°C° 0 mm 11 m/s 739 mmHg 73%
08:00 +3°C° 0 mm 10 m/s 740 mmHg 71%
09:00 +3°C° 0 mm 9 m/s 741 mmHg 68%
10:00 +5°C° 0 mm 10 m/s 741 mmHg 68%
11:00 +5°C° 0 mm 10 m/s 741 mmHg 68%
12:00 +6°C° 0 mm 11 m/s 741 mmHg 67%
13:00 +6°C° 0 mm 10 m/s 741 mmHg 68%
14:00 +5°C° 0 mm 10 m/s 741 mmHg 68%
15:00 +5°C° 0 mm 9 m/s 741 mmHg 69%
16:00 +5°C° 0 mm 9 m/s 740 mmHg 70%
17:00 +5°C° 0 mm 8 m/s 740 mmHg 71%
18:00 +5°C° 0 mm 8 m/s 740 mmHg 73%
19:00 +4°C° 0.2 mm 7 m/s 739 mmHg 78%
20:00 +4°C° 0.2 mm 6 m/s 739 mmHg 84%
21:00 +3°C° 0.2 mm 5 m/s 738 mmHg 89%
22:00 +4°C° 1.1 mm 6 m/s 737 mmHg 88%
23:00 +4°C° 1.1 mm 7 m/s 736 mmHg 87%

Amanhã, 22 Janeiro, Sexta-feira

Tempo Temperatura Precipitação Vento Pressão Humidade
00:00 +5°C° 1.1 mm 8 m/s 736 mmHg 86%
01:00 +4°C° 0.7 mm 7 m/s 736 mmHg 88%
02:00 +3°C° 0.7 mm 6 m/s 736 mmHg 90%
03:00 +2°C° 0.7 mm 6 m/s 737 mmHg 92%
04:00 +2°C° 0 mm 6 m/s 738 mmHg 90%
05:00 +2°C° 0 mm 6 m/s 739 mmHg 89%
06:00 +2°C° 0 mm 6 m/s 740 mmHg 87%
07:00 +2°C° 0 mm 6 m/s 740 mmHg 86%
08:00 +2°C° 0 mm 6 m/s 741 mmHg 85%
09:00 +2°C° 0 mm 5 m/s 741 mmHg 85%
10:00 +2°C° 0 mm 5 m/s 741 mmHg 81%
11:00 +3°C° 0 mm 5 m/s 742 mmHg 77%
12:00 +5°C° 0 mm 5 m/s 742 mmHg 73%
13:00 +3°C° 0 mm 5 m/s 742 mmHg 74%
14:00 +4°C° 0 mm 4 m/s 742 mmHg 75%
15:00 +4°C° 0 mm 4 m/s 743 mmHg 75%
16:00 +3°C° 0 mm 3 m/s 743 mmHg 79%
17:00 +3°C° 0 mm 3 m/s 743 mmHg 83%
18:00 +3°C° 0 mm 2 m/s 744 mmHg 87%
19:00 +2°C° 0 mm 2 m/s 744 mmHg 88%
20:00 +2°C° 0 mm 2 m/s 744 mmHg 89%
21:00 +2°C° 0 mm 2 m/s 745 mmHg 90%
22:00 +1°C° 0 mm 2 m/s 745 mmHg 91%
23:00 0°C° 0 mm 3 m/s 745 mmHg 92%

Depois de amanhã, 23 Janeiro, Sábado

Tempo Temperatura Precipitação Vento Pressão Humidade
00:00 0°C° 0 mm 3 m/s 745 mmHg 93%
01:00 0°C° 0 mm 3 m/s 745 mmHg 93%
02:00 0°C° 0 mm 3 m/s 745 mmHg 94%
03:00 -1°C° 0 mm 3 m/s 745 mmHg 94%
04:00 -1°C° 0 mm 2 m/s 745 mmHg 94%
05:00 -1°C° 0 mm 2 m/s 745 mmHg 94%
06:00 -1°C° 0 mm 2 m/s 745 mmHg 94%
07:00 +1°C° 0 mm 2 m/s 745 mmHg 91%
08:00 +1°C° 0 mm 2 m/s 744 mmHg 89%
09:00 +1°C° 0 mm 3 m/s 744 mmHg 86%
10:00 +2°C° 0.2 mm 2 m/s 744 mmHg 88%
11:00 +2°C° 0.2 mm 2 m/s 744 mmHg 89%
12:00 +3°C° 0.2 mm 2 m/s 744 mmHg 91%
13:00 +3°C° 0 mm 2 m/s 744 mmHg 91%
14:00 +3°C° 0 mm 2 m/s 743 mmHg 91%
15:00 +3°C° 0 mm 2 m/s 743 mmHg 91%
16:00 +3°C° 0 mm 2 m/s 743 mmHg 91%
17:00 +2°C° 0 mm 2 m/s 743 mmHg 92%
18:00 +2°C° 0 mm 2 m/s 744 mmHg 92%
19:00 +2°C° 0 mm 2 m/s 743 mmHg 92%
20:00 +2°C° 0 mm 2 m/s 743 mmHg 92%
21:00 +2°C° 0 mm 2 m/s 743 mmHg 92%
22:00 +2°C° 0.2 mm 2 m/s 743 mmHg 92%
23:00 +2°C° 0.2 mm 2 m/s 743 mmHg 92%

24 Janeiro, Domingo

Tempo Temperatura Precipitação Vento Pressão Humidade
00:00 +2°C° 0.2 mm 2 m/s 743 mmHg 92%
01:00 +1°C° 0.1 mm 3 m/s 743 mmHg 93%
02:00 +1°C° 0.1 mm 3 m/s 743 mmHg 94%
03:00 +1°C° 0.1 mm 3 m/s 744 mmHg 95%
04:00 -1°C° 0.8 mm 5 m/s 744 mmHg 95%
05:00 -2°C° 0.8 mm 6 m/s 744 mmHg 95%
06:00 -2°C° 0.8 mm 8 m/s 744 mmHg 96%
07:00 -2°C° 0.5 mm 7 m/s 744 mmHg 94%
08:00 -2°C° 0.5 mm 7 m/s 745 mmHg 93%
09:00 -2°C° 0.5 mm 6 m/s 745 mmHg 92%
10:00 -2°C° 0.1 mm 6 m/s 745 mmHg 87%
11:00 -1°C° 0.1 mm 6 m/s 745 mmHg 83%
12:00 +1°C° 0.1 mm 6 m/s 746 mmHg 78%
13:00 +1°C° 0.1 mm 5 m/s 746 mmHg 79%
14:00 0°C° 0.1 mm 5 m/s 746 mmHg 79%
15:00 0°C° 0.1 mm 5 m/s 746 mmHg 80%
16:00 0°C° 0 mm 5 m/s 746 mmHg 81%
17:00 -1°C° 0 mm 5 m/s 747 mmHg 82%
18:00 -1°C° 0 mm 5 m/s 747 mmHg 83%
19:00 -1°C° 0 mm 4 m/s 747 mmHg 84%
20:00 -2°C° 0 mm 4 m/s 748 mmHg 84%
21:00 -2°C° 0 mm 4 m/s 748 mmHg 84%
22:00 -2°C° 0 mm 4 m/s 748 mmHg 84%
23:00 -2°C° 0 mm 4 m/s 748 mmHg 84%

25 Janeiro, Segunda-feira

Tempo Temperatura Precipitação Vento Pressão Humidade
00:00 -2°C° 0 mm 4 m/s 749 mmHg 85%
01:00 -3°C° 0 mm 4 m/s 749 mmHg 85%
02:00 -2°C° 0 mm 3 m/s 749 mmHg 86%
03:00 -2°C° 0 mm 3 m/s 750 mmHg 87%
04:00 -2°C° 0 mm 3 m/s 750 mmHg 87%
05:00 -2°C° 0 mm 3 m/s 751 mmHg 87%
06:00 -4°C° 0 mm 3 m/s 751 mmHg 87%
07:00 -2°C° 0 mm 3 m/s 751 mmHg 85%
08:00 -1°C° 0 mm 3 m/s 752 mmHg 84%
09:00 -1°C° 0 mm 3 m/s 752 mmHg 82%
10:00 0°C° 0 mm 3 m/s 753 mmHg 79%
11:00 +1°C° 0 mm 3 m/s 753 mmHg 77%
12:00 +2°C° 0 mm 3 m/s 753 mmHg 75%
13:00 +1°C° 0 mm 3 m/s 753 mmHg 77%
14:00 +2°C° 0 mm 2 m/s 753 mmHg 80%
15:00 +2°C° 0 mm 2 m/s 753 mmHg 83%
16:00 +1°C° 0 mm 2 m/s 754 mmHg 86%
17:00 +1°C° 0 mm 2 m/s 754 mmHg 88%
18:00 -1°C° 0 mm 2 m/s 754 mmHg 91%
19:00 -1°C° 0 mm 2 m/s 754 mmHg 92%
20:00 -1°C° 0 mm 2 m/s 754 mmHg 94%
21:00 -1°C° 0 mm 2 m/s 754 mmHg 96%
22:00 -1°C° 0 mm 2 m/s 754 mmHg 96%
23:00 0°C° 0 mm 3 m/s 754 mmHg 96%

26 Janeiro, Terça-feira

Tempo Temperatura Precipitação Vento Pressão Humidade
00:00 0°C° 0 mm 3 m/s 754 mmHg 96%
01:00 0°C° 0 mm 3 m/s 754 mmHg 95%
02:00 0°C° 0 mm 3 m/s 755 mmHg 94%
03:00 -1°C° 0 mm 3 m/s 755 mmHg 93%
04:00 -1°C° 0 mm 3 m/s 755 mmHg 93%
05:00 -2°C° 0 mm 4 m/s 755 mmHg 94%
06:00 -2°C° 0 mm 4 m/s 755 mmHg 94%
07:00 -2°C° 0 mm 4 m/s 754 mmHg 93%
08:00 -1°C° 0 mm 4 m/s 754 mmHg 91%
09:00 -1°C° 0 mm 5 m/s 754 mmHg 90%
10:00 0°C° 0 mm 5 m/s 754 mmHg 87%
11:00 0°C° 0 mm 4 m/s 753 mmHg 84%
12:00 +1°C° 0 mm 4 m/s 753 mmHg 81%
13:00 +1°C° 0 mm 4 m/s 752 mmHg 83%
14:00 +2°C° 0 mm 3 m/s 752 mmHg 85%
15:00 +1°C° 0 mm 3 m/s 751 mmHg 86%
16:00 +1°C° 0.2 mm 3 m/s 750 mmHg 89%
17:00 0°C° 0.2 mm 4 m/s 749 mmHg 92%
18:00 -1°C° 0.2 mm 4 m/s 748 mmHg 95%
19:00 -1°C° 0.4 mm 4 m/s 748 mmHg 96%
20:00 -1°C° 0.4 mm 4 m/s 748 mmHg 96%
21:00 -1°C° 0.4 mm 4 m/s 748 mmHg 96%
22:00 0°C° 0 mm 3 m/s 748 mmHg 96%
23:00 0°C° 0 mm 3 m/s 749 mmHg 96%
Mostrar mais

Necessitamos do seu Consentimento

A Meteoprog e os seus Fornecedores de Serviços podem armazenar e aceder a dados pessoais como cookies, identificadores do dispositivo ou outras tecnologias semelhantes existentes no seu dispositivo e processar estes dados para personalizar conteúdos e anúncios, assim como funcionalidades nas redes sociais e análise de tráfego.

  • Armazenar e/ou aceder a informações no seu dispositivo

    Os cookies, identificadores do dispositivo ou outras informações podem ser armazenados ou acedidos no seu dispositivo, para os fins acima indicados.

  • Anúncios e conteúdos personalizados, medição de anúncios e conteúdos, dados sobre o público-alvo e desenvolvimento de produtos

    Os anúncios e os conteúdos podem ser personalizados com base num perfil. Podem ser adicionados dados adicionais para uma maior personalização dos anúncios e dos conteúdos. A eficácia dos anúncios e dos conteúdos pode ser medida. Podem ser obtidas informações sobre o público que visualizou os anúncios e os conteúdos. Estes dados podem ser usados para desenvolver ou melhorar sistemas, softwares ou a experiência do utilizador.

Ao clicar em "Eu concordo”, permitirá o uso de cookies, identificadores do dispositivo e web beacons mencionados ou outras tecnologias semelhantes. As configurações do navegador do seu dispositivo podem ser alteradas.

Para certos fins, podem ser invocados interesses legítimos ao invés de consentimento. Pode ler mais informação sobre este assunto na nossa Política de Privacidade e Cookies.